Time,TemperatureF,DewpointF,PressureIn,WindDirection,WindDirectionDegrees,WindSpeedMPH,WindSpeedGustMPH,Humidity,HourlyPrecipIn,Conditions,Clouds,dailyrainin,SolarRadiationWatts/m^2,SoftwareType,DateUTC
2013-12-17 00:01:00,36.0,35.0,-100.00,South,174,18.0,26.0,98,0.01,,,0.08,0.000000,,2013-12-17 08:01:00,
2013-12-17 00:42:00,35.0,34.0,-100.00,South,173,19.0,24.0,98,0.01,,,-99.99,0.000000,,2013-12-17 08:42:00,
2013-12-17 00:52:00,35.0,34.0,-100.00,South,173,19.0,24.0,98,0.01,,,-99.99,0.000000,,2013-12-17 08:52:00,
2013-12-17 01:02:00,35.0,34.0,-100.00,South,173,19.0,24.0,98,0.01,,,-99.99,0.000000,,2013-12-17 09:02:00,
2013-12-17 01:43:00,35.0,34.0,-100.00,South,173,19.0,23.0,98,0.00,,,-99.99,0.000000,,2013-12-17 09:43:00,
2013-12-17 01:53:00,35.0,34.0,-100.00,South,173,19.0,23.0,98,0.00,,,-99.99,0.000000,,2013-12-17 09:53:00,
2013-12-17 02:03:00,35.0,34.0,-100.00,South,173,19.0,23.0,98,0.00,,,-99.99,0.000000,,2013-12-17 10:03:00,
2013-12-17 02:43:00,34.0,33.0,-100.00,South,172,16.0,25.0,97,0.01,,,0.09,0.000000,,2013-12-17 10:43:00,
2013-12-17 02:53:00,34.0,33.0,-100.00,South,172,16.0,25.0,97,0.01,,,0.09,0.000000,,2013-12-17 10:53:00,
2013-12-17 03:02:00,34.0,33.0,-100.00,South,172,16.0,25.0,97,0.01,,,0.09,0.000000,,2013-12-17 11:02:00,
2013-12-17 03:42:00,34.0,33.0,-100.00,South,170,15.0,20.0,97,0.00,,,0.09,0.000000,,2013-12-17 11:42:00,
2013-12-17 03:52:00,34.0,33.0,-100.00,South,170,15.0,20.0,97,0.00,,,0.09,0.000000,,2013-12-17 11:52:00,
2013-12-17 04:02:00,34.0,33.0,-100.00,South,170,15.0,20.0,97,0.00,,,0.09,0.000000,,2013-12-17 12:02:00,
2013-12-17 04:42:00,33.0,32.0,-100.00,South,172,12.0,17.0,97,0.01,,,-99.99,0.000000,,2013-12-17 12:42:00,
2013-12-17 04:52:00,33.0,32.0,-100.00,South,172,12.0,17.0,97,0.01,,,-99.99,0.000000,,2013-12-17 12:52:00,
2013-12-17 05:01:00,33.0,32.0,-100.00,South,172,12.0,17.0,97,0.01,,,-99.99,0.000000,,2013-12-17 13:01:00,
2013-12-17 05:42:00,33.0,32.0,-100.00,South,171,11.0,15.0,97,0.00,,,0.09,0.000000,,2013-12-17 13:42:00,
2013-12-17 05:52:00,33.0,32.0,-100.00,South,171,11.0,15.0,97,0.00,,,0.09,0.000000,,2013-12-17 13:52:00,
2013-12-17 06:01:00,33.0,32.0,-100.00,South,171,11.0,15.0,97,0.00,,,0.09,0.000000,,2013-12-17 14:01:00,
2013-12-17 06:42:00,32.0,31.0,-100.00,South,174,9.0,14.0,97,0.00,,,0.09,0.000000,,2013-12-17 14:42:00,
2013-12-17 06:52:00,32.0,31.0,-100.00,South,174,9.0,14.0,97,0.00,,,0.09,0.000000,,2013-12-17 14:52:00,
2013-12-17 07:02:00,32.0,31.0,-100.00,South,174,9.0,14.0,97,0.00,,,0.09,0.000000,,2013-12-17 15:02:00,
2013-12-17 07:44:00,32.0,31.0,-100.00,South,171,9.0,12.0,97,0.00,,,0.09,0.000000,,2013-12-17 15:44:00,
2013-12-17 07:53:00,32.0,31.0,-100.00,South,171,9.0,12.0,97,0.00,,,0.09,0.000000,,2013-12-17 15:53:00,
2013-12-17 08:03:00,32.0,31.0,-100.00,South,171,9.0,12.0,97,0.00,,,0.09,0.000000,,2013-12-17 16:03:00,
2013-12-17 08:43:00,31.0,30.0,-100.00,South,172,10.0,12.0,97,0.00,,,0.08,3.000000,,2013-12-17 16:43:00,
2013-12-17 08:52:00,31.0,30.0,-100.00,South,172,10.0,12.0,97,0.00,,,0.08,3.000000,,2013-12-17 16:52:00,
2013-12-17 09:02:00,31.0,30.0,-100.00,South,172,10.0,12.0,97,0.00,,,0.08,3.000000,,2013-12-17 17:02:00,
2013-12-17 09:42:00,32.0,31.0,-100.00,South,175,8.0,12.0,97,0.00,,,-99.99,40.000000,,2013-12-17 17:42:00,
2013-12-17 09:53:00,32.0,31.0,-100.00,South,175,8.0,12.0,97,0.00,,,-99.99,40.000000,,2013-12-17 17:53:00,
2013-12-17 10:02:00,32.0,31.0,-100.00,South,175,8.0,12.0,97,0.00,,,-99.99,40.000000,,2013-12-17 18:02:00,
2013-12-17 10:42:00,33.0,32.0,-100.00,South,176,7.0,9.0,98,0.00,,,0.07,101.000000,,2013-12-17 18:42:00,
2013-12-17 10:52:00,33.0,32.0,-100.00,South,176,7.0,9.0,98,0.00,,,0.07,101.000000,,2013-12-17 18:52:00,
2013-12-17 11:01:00,33.0,32.0,-100.00,South,176,7.0,9.0,98,0.00,,,0.07,101.000000,,2013-12-17 19:01:00,
2013-12-17 11:42:00,39.0,38.0,-100.00,South,174,4.0,7.0,98,0.00,,,0.07,94.000000,,2013-12-17 19:42:00,
2013-12-17 11:52:00,39.0,38.0,-100.00,South,174,4.0,7.0,98,0.00,,,0.07,94.000000,,2013-12-17 19:52:00,
2013-12-17 12:01:00,39.0,38.0,-100.00,South,174,4.0,7.0,98,0.00,,,0.07,94.000000,,2013-12-17 20:01:00,
2013-12-17 12:42:00,44.0,43.0,-100.00,North,-999,0.0,5.0,98,0.00,,,0.06,72.000000,,2013-12-17 20:42:00,
2013-12-17 12:52:00,44.0,43.0,-100.00,North,-999,0.0,5.0,98,0.00,,,0.06,72.000000,,2013-12-17 20:52:00,
2013-12-17 13:02:00,44.0,43.0,-100.00,North,-999,0.0,5.0,98,0.00,,,0.06,72.000000,,2013-12-17 21:02:00,
2013-12-17 13:43:00,46.0,44.0,-100.00,North,-999,0.0,3.0,94,0.00,,,0.06,387.000000,,2013-12-17 21:43:00,
2013-12-17 13:53:00,46.0,44.0,-100.00,North,-999,0.0,3.0,94,0.00,,,0.06,387.000000,,2013-12-17 21:53:00,
2013-12-17 14:03:00,46.0,44.0,-100.00,North,-999,0.0,3.0,94,0.00,,,0.06,387.000000,,2013-12-17 22:03:00,
2013-12-17 14:43:00,46.0,43.0,-100.00,NNW,347,2.0,6.0,90,0.00,,,0.06,360.000000,,2013-12-17 22:43:00,
2013-12-17 14:53:00,46.0,43.0,-100.00,NNW,347,2.0,6.0,90,0.00,,,0.06,360.000000,,2013-12-17 22:53:00,
2013-12-17 15:03:00,46.0,43.0,-100.00,NNW,347,2.0,6.0,90,0.00,,,0.06,360.000000,,2013-12-17 23:03:00,
2013-12-17 15:42:00,46.0,42.0,-100.00,NNW,341,1.0,5.0,86,0.00,,,0.06,238.000000,,2013-12-17 23:42:00,
2013-12-17 15:53:00,46.0,42.0,-100.00,NNW,341,1.0,5.0,86,0.00,,,0.06,238.000000,,2013-12-17 23:53:00,
2013-12-17 16:02:00,46.0,42.0,-100.00,NNW,341,1.0,5.0,86,0.00,,,0.06,238.000000,,2013-12-18 00:02:00,
2013-12-17 16:42:00,43.0,39.0,-100.00,NW,309,2.0,5.0,85,0.00,,,0.06,38.000000,,2013-12-18 00:42:00,
2013-12-17 16:52:00,43.0,39.0,-100.00,NW,309,2.0,5.0,85,0.00,,,0.06,38.000000,,2013-12-18 00:52:00,
2013-12-17 17:02:00,43.0,39.0,-100.00,NW,309,2.0,5.0,85,0.00,,,0.06,38.000000,,2013-12-18 01:02:00,
2013-12-17 17:42:00,42.0,39.0,-100.00,NW,324,2.0,5.0,90,0.00,,,0.06,5.000000,,2013-12-18 01:42:00,
2013-12-17 17:52:00,42.0,39.0,-100.00,NW,324,2.0,5.0,90,0.00,,,0.06,5.000000,,2013-12-18 01:52:00,
2013-12-17 18:01:00,42.0,39.0,-100.00,NW,324,2.0,5.0,90,0.00,,,0.06,5.000000,,2013-12-18 02:01:00,
2013-12-17 18:42:00,40.0,39.0,-100.00,WNW,297,3.0,7.0,95,0.00,,,0.06,0.000000,,2013-12-18 02:42:00,
2013-12-17 18:52:00,40.0,39.0,-100.00,WNW,297,3.0,7.0,95,0.00,,,0.06,0.000000,,2013-12-18 02:52:00,
2013-12-17 19:02:00,40.0,39.0,-100.00,WNW,297,3.0,7.0,95,0.00,,,0.06,0.000000,,2013-12-18 03:02:00,
2013-12-17 19:44:00,38.0,37.0,-100.00,North,-999,0.0,3.0,95,0.00,,,0.05,0.000000,,2013-12-18 03:44:00,
2013-12-17 19:53:00,38.0,37.0,-100.00,North,-999,0.0,3.0,95,0.00,,,0.05,0.000000,,2013-12-18 03:53:00,
2013-12-17 20:03:00,38.0,37.0,-100.00,North,-999,0.0,3.0,95,0.00,,,0.05,0.000000,,2013-12-18 04:03:00,
2013-12-17 22:42:00,37.0,36.0,-100.00,South,169,6.0,9.0,98,-99.99,,,-99.99,0.000000,,2013-12-18 06:42:00,
2013-12-17 22:53:00,37.0,36.0,-100.00,South,169,6.0,9.0,98,-99.99,,,-99.99,0.000000,,2013-12-18 06:53:00,
2013-12-17 23:02:00,37.0,36.0,-100.00,South,169,6.0,9.0,98,-99.99,,,-99.99,0.000000,,2013-12-18 07:02:00,
2013-12-17 23:42:00,37.0,37.0,-100.00,South,169,7.0,10.0,99,0.00,,,0.03,0.000000,,2013-12-18 07:42:00,
2013-12-17 23:53:00,37.0,37.0,-100.00,South,169,7.0,10.0,99,0.00,,,0.03,0.000000,,2013-12-18 07:53:00,